This demonstration page uses our WeatherBlox Daily Observations layout. Learn more.

Left ArrowRight Arrow

38.20091, -84.87328

Hourly Observations for April 22, 2016

Temp ( °F °C ) Dew Point ( °F °C ) Humidity (%) Winds ( mph kmh ) Pressure ( in mb ) Visibility ( mi km ) Precip ( " mm )
12:53 am 00:53 Cloudy 60 15.6 54 12.2 80 80 S 9 15 29.89 1012 10 16 0.00 0.00
1:25 am 01:25 Cloudy 60 15.6 54 12.2 80 80 S 13 20 29.91 1013 10 16 0.00 0.00
1:53 am 01:53 Cloudy 60 15.6 55 12.8 84 84 S 9 15 29.87 1012 10 16 0.00 0.00
2:53 am 02:53 Cloudy 61 16.1 56 13.3 84 84 SW 10 17 29.86 1011 10 16 0.00 0.00
3:23 am 03:23 Cloudy 60 15.6 52 11.1 75 75 WNW 9 15 29.88 1012 10 16 0.00 0.00
3:30 am 03:30 Cloudy with Light Rain 59 15 52 11.1 78 78 W 9 15 29.88 1012 10 16 0.00 0.03
3:37 am 03:37 Cloudy with Rain 58 14.4 52 11.1 81 81 W 5 7 29.88 1012 5 8 0.02 0.51
3:53 am 03:53 Cloudy with Light Rain 57 13.9 53 11.7 87 87 WSW 5 7 29.87 1012 10 16 0.03 0.76
4:53 am 04:53 Mostly Cloudy 56 13.3 53 11.7 90 90 WSW 3 6 29.87 1011 10 16 0.01 0.25
5:53 am 05:53 Mostly Cloudy 54 12.2 51 10.6 90 90 SSW 7 11 29.87 1012 10 16 0.00 0.00
6:53 am 06:53 Cloudy with Light Rain 56 13.3 52 11.1 87 87 SSE 8 13 29.86 1011 10 16 0.03 0.76
7:53 am 07:53 Cloudy 56 13.3 53 11.7 90 90 SSW 3 6 29.88 1012 10 16 0.00 0.03
8:53 am 08:53 Cloudy 57 13.9 53 11.7 87 87 SSW 3 6 29.89 1012 10 16 0.01 0.25
9:53 am 09:53 Mostly Cloudy 59 15 54 12.2 83 83 S 5 7 29.90 1013 10 16 0.00 0.00
10:53 am 10:53 Cloudy 63 17.2 54 12.2 73 73 SSW 7 11 29.91 1013 10 16 0.00 0.00
11:51 am 11:51 Mostly Cloudy 64 18 54 12 68 68 SSW 9 15 29.91 1013 10 16 0.00 0.00
11:53 am 11:53 Cloudy 65 18.3 54 12.2 68 68 S 10 17 29.91 1013 10 16 0.00 0.00
12:35 pm 12:35 Cloudy 64 17.8 54 12.2 70 70 WSW 8 13 29.94 1014 10 16 0.00 0.00
12:53 pm 12:53 Cloudy 66 18.9 55 12.8 68 68 W 7 11 29.91 1013 10 16 0.00 0.00
1:53 pm 13:53 Mostly Cloudy 68 20 54 12.2 61 61 W 9 15 29.90 1012 10 16 0.00 0.00
2:11 pm 14:11 Mostly Cloudy 68 20 54 12.2 61 61 W 12 19 29.88 1012 10 16 0.00 0.00
2:53 pm 14:53 Mostly Cloudy 64 17.8 50 10 60 60 NW 12 19 29.91 1013 10 16 0.00 0.00
3:53 pm 15:53 Cloudy 62 16.7 54 12.2 75 75 NW 14 22 29.92 1013 10 16 0.00 0.03
4:53 pm 16:53 Mostly Cloudy 63 17.2 51 10.6 65 65 NW 5 7 29.90 1012 10 16 0.01 0.25
5:53 pm 17:53 Sunny 66 18.9 51 10.6 59 59 VRB 7 11 29.91 1013 10 16 0.00 0.00
6:53 pm 18:53 Sunny 63 17.2 49 9.4 60 60 WNW 8 13 29.93 1013 10 16 0.00 0.00
7:53 pm 19:53 Sunny 63 17.2 50 10 63 63 NW 3 6 29.93 1014 10 16 0.00 0.00
8:53 pm 20:53 Clear 58 14.4 51 10.6 78 78 W 5 7 29.95 1014 10 16 0.00 0.00
9:53 pm 21:53 Clear 56 13.3 50 10 81 81 NNW 3 6 29.96 1015 10 16 0.00 0.00
10:53 pm 22:53 Mostly Cloudy 56 13.3 50 10 81 81 WNW 3 6 29.98 1015 10 16 0.00 0.00
11:53 pm 23:53 Mostly Clear 53 11.7 49 9.4 86 86 WNW 3 6 29.99 1016 10 16 0.00 0.00

Powered by AerisWeather